메인 페이지
METAR-TAF:

METAR-TAF

공항 :

Fort Worth Spinks Airport

포트워스, 텍사스, 미국

위도: 32-34N, 경도: 097-18W, 고도: 213m

현재 날씨관측

예보는 46분 전, 13:46시(UTC)에 발표되었습니다.
6kt
온도 4°C
습도 70%
기압 1024 hPa
시정: 16.1km
고도 3000ft 상공 흐림

METAR: KFWS 191346Z 36006KT 10SM OVC030 04/M01 A3025

시각: 08:32 (14:32 UTC)


TAF: 누락

4,000개 이상의 공항 관측 자료 및 예보 (METAR 및 TAF 보고).

지도상에서 검색 가능한 기상관측소가 노란 점과 빨간 점으로 표시되어 있습니다.

기상관측소 명을 보려면 표시 위로 마우스를 이동하세요.

날씨 관측과 예보를 보려면 클릭하세요.

지도 변경 : 확대하려면 엑스 표시가 있는 녹색 버튼, 축소하려면 빼기 표시가 있는 녹색 버튼, 다음 페이지의 지도를 보려면 녹색 화살표를 클릭하세요.


METAR-TAF: